| time (UTC) | temp C | wind direction | speed KPH | gust KPH | rain 1hr cm | rain 24hr cm | rain mn cm | humidity % | barometer mb |
| 20260510140054 | 12 | 38 | 4.8 | 22.5 | 0.00 | 0.00 | 0.00 | 68 | 1016.5 |
| 20260510135553 | 12 | 42 | 8.0 | 20.9 | 0.00 | 0.00 | 0.00 | 67 | 1016.5 |
| 20260510135053 | 12 | 62 | 4.8 | 16.1 | 0.00 | 0.00 | 0.00 | 68 | 1016.6 |
| 20260510134557 | 12 | 39 | 4.8 | 16.1 | 0.00 | 0.00 | 0.00 | 68 | 1016.6 |
| 20260510134056 | 12 | 26 | 6.4 | 27.4 | 0.00 | 0.00 | 0.00 | 68 | 1016.5 |
| 20260510133552 | 12 | 106 | 4.8 | 27.4 | 0.00 | 0.00 | 0.00 | 68 | 1016.5 |
| 20260510133051 | 12 | 59 | 4.8 | 12.9 | 0.00 | 0.00 | 0.00 | 68 | 1016.6 |
| 20260510132551 | 12 | 348 | 3.2 | 22.5 | 0.00 | 0.00 | 0.00 | 68 | 1016.6 |
| 20260510132051 | 12 | 45 | 6.4 | 17.7 | 0.00 | 0.00 | 0.00 | 69 | 1016.7 |
| 20260510131550 | 12 | 48 | 8.0 | 17.7 | 0.00 | 0.00 | 0.00 | 69 | 1016.6 |
| 20260510131050 | 12 | 50 | 4.8 | 17.7 | 0.00 | 0.00 | 0.00 | 69 | 1016.7 |
| 20260510130550 | 12 | 30 | 6.4 | 19.3 | 0.00 | 0.00 | 0.00 | 69 | 1016.7 |
| 20260510130050 | 12 | 62 | 6.4 | 20.9 | 0.00 | 0.00 | 0.00 | 69 | 1016.8 |
| 20260510125549 | 12 | 43 | 9.7 | 20.9 | 0.00 | 0.00 | 0.00 | 69 | 1016.9 |
| 20260510125049 | 12 | 112 | 8.0 | 22.5 | 0.00 | 0.00 | 0.00 | 69 | 1016.8 |
| 20260510124556 | 12 | 56 | 6.4 | 22.5 | 0.00 | 0.00 | 0.00 | 69 | 1016.8 |
| 20260510124048 | 12 | 38 | 4.8 | 27.4 | 0.00 | 0.00 | 0.00 | 68 | 1016.9 |
| 20260510123549 | 13 | 36 | 6.4 | 27.4 | 0.00 | 0.00 | 0.00 | 67 | 1017.0 |
| 20260510123048 | 13 | 36 | 9.7 | 20.9 | 0.00 | 0.00 | 0.00 | 67 | 1017.1 |
| 20260510122550 | 13 | 42 | 4.8 | 24.1 | 0.00 | 0.00 | 0.00 | 66 | 1017.1 |
| 20260510122047 | 13 | 95 | 6.4 | 24.1 | 0.00 | 0.00 | 0.00 | 66 | 1017.0 |
| 20260510121547 | 13 | 26 | 8.0 | 24.1 | 0.00 | 0.00 | 0.00 | 66 | 1016.9 |
| 20260510121047 | 13 | 45 | 9.7 | 27.4 | 0.00 | 0.00 | 0.00 | 66 | 1017.0 |
| 20260510120551 | 13 | 53 | 8.0 | 27.4 | 0.00 | 0.00 | 0.00 | 66 | 1017.0 |
| 20260510120046 | 13 | 37 | 14.5 | 22.5 | 0.00 | 0.00 | 0.00 | 65 | 1017.1 |
| 20260510115546 | 13 | 44 | 9.7 | 19.3 | 0.00 | 0.00 | 0.00 | 65 | 1017.0 |
| 20260510115046 | 13 | 64 | 4.8 | 19.3 | 0.00 | 0.00 | 0.00 | 65 | 1017.1 |
| 20260510114552 | 13 | 18 | 6.4 | 19.3 | 0.00 | 0.00 | 0.00 | 66 | 1017.1 |
| 20260510114043 | 13 | 24 | 4.8 | 20.9 | 0.00 | 0.00 | 0.00 | 66 | 1017.1 |
| 20260510113542 | 13 | 43 | 8.0 | 20.9 | 0.00 | 0.00 | 0.00 | 66 | 1017.1 |
| 20260510113042 | 13 | 41 | 11.3 | 24.1 | 0.00 | 0.00 | 0.00 | 66 | 1017.2 |
| 20260510112543 | 13 | 53 | 12.9 | 24.1 | 0.00 | 0.00 | 0.00 | 66 | 1017.3 |
| 20260510112039 | 13 | 51 | 8.0 | 20.9 | 0.00 | 0.00 | 0.00 | 67 | 1017.2 |
| 20260510111540 | 13 | 74 | 8.0 | 25.7 | 0.00 | 0.00 | 0.00 | 67 | 1017.3 |
| 20260510111037 | 13 | 5 | 8.0 | 27.4 | 0.00 | 0.00 | 0.00 | 67 | 1017.3 |
| 20260510110536 | 13 | 29 | 9.7 | 27.4 | 0.00 | 0.00 | 0.00 | 67 | 1017.4 |
| 20260510110034 | 13 | 51 | 8.0 | 20.9 | 0.00 | 0.00 | 0.00 | 67 | 1017.4 |
| 20260510105534 | 13 | 74 | 11.3 | 19.3 | 0.00 | 0.00 | 0.00 | 67 | 1017.4 |
| 20260510105032 | 13 | 17 | 11.3 | 19.3 | 0.00 | 0.00 | 0.00 | 67 | 1017.5 |
| 20260510104530 | 13 | 51 | 4.8 | 24.1 | 0.00 | 0.00 | 0.00 | 68 | 1017.5 |
| 20260510104028 | 13 | 61 | 9.7 | 24.1 | 0.00 | 0.00 | 0.00 | 68 | 1017.5 |
| 20260510103527 | 13 | 50 | 6.4 | 19.3 | 0.00 | 0.00 | 0.00 | 68 | 1017.6 |
| 20260510103025 | 12 | 69 | 4.8 | 19.3 | 0.00 | 0.00 | 0.00 | 69 | 1017.5 |
| 20260510102527 | 12 | 69 | 8.0 | 24.1 | 0.00 | 0.00 | 0.00 | 69 | 1017.5 |
| 20260510102027 | 12 | 36 | 9.7 | 24.1 | 0.00 | 0.00 | 0.00 | 69 | 1017.5 |
| 20260510101524 | 12 | 62 | 4.8 | 17.7 | 0.00 | 0.00 | 0.00 | 69 | 1017.5 |
| 20260510101023 | 12 | 55 | 4.8 | 17.7 | 0.00 | 0.00 | 0.00 | 70 | 1017.5 |
| 20260510100522 | 12 | 132 | 6.4 | 19.3 | 0.00 | 0.00 | 0.00 | 69 | 1017.5 |
| 20260510100022 | 12 | 202 | 6.4 | 19.3 | 0.00 | 0.00 | 0.00 | 70 | 1017.5 |
| 20260510095524 | 12 | 27 | 8.0 | 25.7 | 0.00 | 0.00 | 0.00 | 70 | 1017.5 |
| 20260510095018 | 12 | 355 | 11.3 | 25.7 | 0.00 | 0.00 | 0.00 | 69 | 1017.5 |
| 20260510094534 | 12 | 76 | 6.4 | 20.9 | 0.00 | 0.00 | 0.00 | 69 | 1017.5 |
| 20260510094015 | 12 | 61 | 6.4 | 22.5 | 0.00 | 0.00 | 0.00 | 69 | 1017.4 |
| 20260510093514 | 12 | 86 | 4.8 | 22.5 | 0.00 | 0.00 | 0.00 | 70 | 1017.5 |
| 20260510093012 | 12 | 51 | 9.7 | 22.5 | 0.00 | 0.00 | 0.00 | 69 | 1017.6 |
| 20260510092515 | 12 | 31 | 9.7 | 22.5 | 0.00 | 0.00 | 0.00 | 69 | 1017.6 |
| 20260510092008 | 12 | 29 | 6.4 | 19.3 | 0.00 | 0.00 | 0.00 | 69 | 1017.7 |
| 20260510091508 | 12 | 48 | 8.0 | 25.7 | 0.00 | 0.00 | 0.00 | 70 | 1017.6 |
| 20260510091006 | 12 | 54 | 6.4 | 25.7 | 0.00 | 0.00 | 0.00 | 70 | 1017.7 |
| 20260510090505 | 12 | 42 | 4.8 | 16.1 | 0.00 | 0.00 | 0.00 | 71 | 1017.8 |
| 20260510090007 | 12 | 77 | 6.4 | 16.1 | 0.00 | 0.00 | 0.00 | 71 | 1017.7 |
| 20260510085503 | 12 | 36 | 4.8 | 17.7 | 0.00 | 0.00 | 0.00 | 72 | 1017.7 |
| 20260510085104 | 12 | 53 | 6.4 | 17.7 | 0.00 | 0.00 | 0.00 | 72 | 1017.8 |
| 20260510084519 | 12 | 46 | 6.4 | 19.3 | 0.00 | 0.00 | 0.00 | 72 | 1017.8 |
| 20260510083557 | 12 | 46 | 11.3 | 22.5 | 0.00 | 0.00 | 0.00 | 73 | 1017.9 |
| 20260510083106 | 11 | 37 | 9.7 | 20.9 | 0.00 | 0.00 | 0.00 | 73 | 1017.9 |
| 20260510082555 | 11 | 51 | 4.8 | 17.7 | 0.00 | 0.00 | 0.00 | 74 | 1017.9 |
| 20260510082055 | 11 | 53 | 4.8 | 17.7 | 0.00 | 0.00 | 0.00 | 74 | 1017.9 |
| 20260510081555 | 11 | 39 | 4.8 | 20.9 | 0.00 | 0.00 | 0.00 | 74 | 1018.0 |
| 20260510081055 | 11 | 350 | 6.4 | 20.9 | 0.00 | 0.00 | 0.00 | 75 | 1017.9 |
| 20260510080555 | 11 | 44 | 3.2 | 22.5 | 0.00 | 0.00 | 0.00 | 75 | 1017.9 |
| 20260510080056 | 11 | 46 | 11.3 | 22.5 | 0.00 | 0.00 | 0.00 | 75 | 1017.9 |
| 20260510075653 | 11 | 42 | 8.0 | 22.5 | 0.00 | 0.00 | 0.00 | 75 | 1017.8 |
| 20260510075053 | 11 | 70 | 3.2 | 20.9 | 0.00 | 0.00 | 0.00 | 76 | 1017.8 |
| 20260510074553 | 11 | 38 | 9.7 | 24.1 | 0.00 | 0.00 | 0.00 | 75 | 1017.8 |
| 20260510074052 | 11 | 26 | 4.8 | 20.9 | 0.00 | 0.00 | 0.00 | 76 | 1017.9 |
| 20260510073552 | 11 | 75 | 6.4 | 20.9 | 0.00 | 0.00 | 0.00 | 76 | 1017.8 |
| 20260510073056 | 11 | 45 | 4.8 | 20.9 | 0.00 | 0.00 | 0.00 | 77 | 1017.9 |
| 20260510072551 | 11 | 106 | 3.2 | 19.3 | 0.00 | 0.00 | 0.00 | 77 | 1017.8 |
| 20260510072049 | 11 | 88 | 6.4 | 20.9 | 0.00 | 0.00 | 0.00 | 77 | 1017.9 |
| 20260510071550 | 10 | 49 | 6.4 | 20.9 | 0.00 | 0.00 | 0.00 | 77 | 1017.9 |
| 20260510071048 | 10 | 92 | 4.8 | 19.3 | 0.00 | 0.00 | 0.00 | 77 | 1017.9 |
| 20260510070548 | 10 | 61 | 6.4 | 24.1 | 0.00 | 0.00 | 0.00 | 77 | 1017.8 |
| 20260510070048 | 10 | 40 | 8.0 | 24.1 | 0.00 | 0.00 | 0.00 | 77 | 1017.9 |
| 20260510065549 | 10 | 50 | 3.2 | 17.7 | 0.00 | 0.00 | 0.00 | 78 | 1017.8 |
| 20260510065046 | 10 | 86 | 4.8 | 16.1 | 0.00 | 0.00 | 0.00 | 78 | 1017.8 |
| 20260510064549 | 10 | 51 | 4.8 | 20.9 | 0.00 | 0.00 | 0.00 | 78 | 1017.8 |
| 20260510064044 | 10 | 54 | 4.8 | 20.9 | 0.00 | 0.00 | 0.00 | 79 | 1017.9 |
| 20260510063544 | 10 | 233 | 4.8 | 16.1 | 0.00 | 0.00 | 0.00 | 79 | 1017.9 |
| 20260510063042 | 10 | 54 | 3.2 | 17.7 | 0.00 | 0.00 | 0.00 | 79 | 1017.8 |
| 20260510062542 | 10 | 37 | 6.4 | 22.5 | 0.00 | 0.00 | 0.00 | 79 | 1017.8 |
| 20260510062041 | 10 | 50 | 9.7 | 22.5 | 0.00 | 0.00 | 0.00 | 79 | 1017.8 |
| 20260510061540 | 10 | 57 | 3.2 | 17.7 | 0.00 | 0.00 | 0.00 | 79 | 1017.8 |
| 20260510061040 | 10 | 38 | 8.0 | 17.7 | 0.00 | 0.00 | 0.00 | 79 | 1017.7 |
| 20260510060540 | 10 | 69 | 4.8 | 16.1 | 0.00 | 0.00 | 0.00 | 79 | 1017.7 |
| 20260510060043 | 10 | 89 | 6.4 | 16.1 | 0.00 | 0.00 | 0.00 | 79 | 1017.7 |
| 20260510055537 | 10 | 67 | 6.4 | 20.9 | 0.00 | 0.00 | 0.00 | 79 | 1017.6 |
| 20260510055037 | 10 | 44 | 6.4 | 19.3 | 0.00 | 0.00 | 0.00 | 79 | 1017.6 |
| 20260510054540 | 10 | 54 | 4.8 | 16.1 | 0.00 | 0.00 | 0.00 | 80 | 1017.6 |
| 20260510054036 | 10 | 21 | 8.0 | 17.7 | 0.00 | 0.00 | 0.00 | 80 | 1017.6 |
| 20260510053534 | 10 | 53 | 4.8 | 19.3 | 0.00 | 0.00 | 0.00 | 80 | 1017.5 |
| 20260510053033 | 10 | 56 | 6.4 | 19.3 | 0.00 | 0.00 | 0.00 | 80 | 1017.5 |
| 20260510052532 | 10 | 9 | 4.8 | 16.1 | 0.00 | 0.00 | 0.00 | 81 | 1017.5 |
| 20260510052031 | 10 | 17 | 3.2 | 12.9 | 0.00 | 0.00 | 0.00 | 81 | 1017.6 |
| 20260510051534 | 10 | 60 | 4.8 | 14.5 | 0.00 | 0.00 | 0.00 | 81 | 1017.4 |
| 20260510051029 | 9 | 76 | 4.8 | 16.1 | 0.00 | 0.00 | 0.00 | 81 | 1017.5 |
| 20260510050532 | 9 | 81 | 3.2 | 16.1 | 0.00 | 0.00 | 0.00 | 82 | 1017.5 |
| 20260510050027 | 9 | 99 | 3.2 | 14.5 | 0.00 | 0.00 | 0.00 | 82 | 1017.5 |
| 20260510045531 | 9 | 40 | 4.8 | 14.5 | 0.00 | 0.00 | 0.00 | 82 | 1017.4 |
| 20260510045026 | 9 | 61 | 6.4 | 14.5 | 0.00 | 0.00 | 0.00 | 82 | 1017.5 |
| 20260510044526 | 9 | 44 | 6.4 | 14.5 | 0.00 | 0.00 | 0.00 | 82 | 1017.5 |
| 20260510044125 | 9 | 49 | 3.2 | 16.1 | 0.00 | 0.00 | 0.00 | 82 | 1017.5 |
| 20260510043525 | 9 | 38 | 4.8 | 16.1 | 0.00 | 0.00 | 0.00 | 83 | 1017.5 |
| 20260510043027 | 9 | 65 | 4.8 | 11.3 | 0.00 | 0.00 | 0.00 | 83 | 1017.6 |
| 20260510042523 | 9 | 45 | 6.4 | 17.7 | 0.00 | 0.00 | 0.00 | 83 | 1017.6 |
| 20260510042021 | 9 | 44 | 4.8 | 19.3 | 0.00 | 0.00 | 0.00 | 83 | 1017.6 |
| 20260510041522 | 9 | 56 | 4.8 | 19.3 | 0.00 | 0.00 | 0.00 | 83 | 1017.6 |
| 20260510041021 | 9 | 33 | 4.8 | 17.7 | 0.00 | 0.00 | 0.00 | 83 | 1017.6 |
| 20260510040521 | 9 | 45 | 4.8 | 17.7 | 0.00 | 0.00 | 0.00 | 83 | 1017.7 |
| 20260510040020 | 9 | 34 | 6.4 | 17.7 | 0.00 | 0.00 | 0.00 | 83 | 1017.7 |
| 20260510035519 | 9 | 22 | 8.0 | 16.1 | 0.00 | 0.00 | 0.00 | 83 | 1017.8 |
| 20260510035019 | 9 | 44 | 6.4 | 19.3 | 0.00 | 0.00 | 0.00 | 83 | 1017.7 |
| 20260510034522 | 9 | 41 | 6.4 | 17.7 | 0.00 | 0.00 | 0.00 | 83 | 1017.8 |
| 20260510034017 | 9 | 42 | 3.2 | 12.9 | 0.00 | 0.00 | 0.00 | 83 | 1017.9 |
| 20260510033520 | 9 | 44 | 4.8 | 12.9 | 0.00 | 0.00 | 0.00 | 82 | 1017.9 |
| 20260510033016 | 9 | 43 | 4.8 | 12.9 | 0.00 | 0.00 | 0.00 | 82 | 1017.9 |
| 20260510032516 | 9 | 34 | 4.8 | 17.7 | 0.00 | 0.00 | 0.00 | 82 | 1017.9 |
| 20260510032015 | 9 | 30 | 4.8 | 17.7 | 0.00 | 0.00 | 0.00 | 82 | 1018.1 |
| 20260510031515 | 9 | 130 | 6.4 | 20.9 | 0.00 | 0.00 | 0.00 | 82 | 1018.0 |
| 20260510031014 | 9 | 32 | 6.4 | 20.9 | 0.00 | 0.00 | 0.00 | 82 | 1017.9 |
| 20260510030521 | 9 | 50 | 4.8 | 16.1 | 0.00 | 0.00 | 0.00 | 82 | 1018.0 |
| 20260510030018 | 10 | 80 | 4.8 | 17.7 | 0.00 | 0.00 | 0.00 | 81 | 1018.0 |
| 20260510025515 | 10 | 57 | 9.7 | 17.7 | 0.00 | 0.00 | 0.00 | 81 | 1018.1 |
| 20260510025013 | 10 | 79 | 6.4 | 20.9 | 0.00 | 0.00 | 0.00 | 81 | 1018.1 |
| 20260510024512 | 10 | 20 | 9.7 | 20.9 | 0.00 | 0.00 | 0.00 | 81 | 1018.0 |
| 20260510024011 | 10 | 49 | 3.2 | 20.9 | 0.00 | 0.00 | 0.00 | 80 | 1018.0 |
| 20260510023510 | 10 | 67 | 4.8 | 17.7 | 0.00 | 0.00 | 0.00 | 80 | 1018.1 |
| 20260510022508 | 10 | 60 | 8.0 | 19.3 | 0.00 | 0.00 | 0.00 | 79 | 1018.1 |
| 20260510022008 | 10 | 63 | 6.4 | 17.7 | 0.00 | 0.00 | 0.00 | 79 | 1018.0 |
| 20260510021507 | 10 | 51 | 8.0 | 17.7 | 0.00 | 0.00 | 0.00 | 79 | 1018.0 |
| 20260510021005 | 10 | 32 | 6.4 | 17.7 | 0.00 | 0.00 | 0.00 | 79 | 1018.1 |
| 20260510020504 | 10 | 53 | 8.0 | 17.7 | 0.00 | 0.00 | 0.00 | 78 | 1018.1 |
| 20260510020005 | 10 | 38 | 4.8 | 14.5 | 0.00 | 0.00 | 0.00 | 78 | 1018.0 |
| 20260510015503 | 10 | 53 | 6.4 | 16.1 | 0.00 | 0.00 | 0.00 | 77 | 1017.9 |
| 20260510015002 | 10 | 53 | 6.4 | 17.7 | 0.00 | 0.00 | 0.00 | 77 | 1017.9 |
| 20260510014502 | 10 | 51 | 8.0 | 17.7 | 0.00 | 0.00 | 0.00 | 76 | 1018.0 |
| 20260510014001 | 10 | 17 | 6.4 | 14.5 | 0.00 | 0.00 | 0.00 | 76 | 1018.0 |
| 20260510013601 | 10 | 40 | 6.4 | 14.5 | 0.00 | 0.00 | 0.00 | 76 | 1018.0 |
| 20260510013104 | 10 | 40 | 3.2 | 14.5 | 0.00 | 0.00 | 0.00 | 77 | 1018.2 |
| 20260510012558 | 10 | 59 | 3.2 | 14.5 | 0.00 | 0.00 | 0.00 | 77 | 1018.3 |
| 20260510012058 | 11 | 61 | 0.0 | 14.5 | 0.00 | 0.00 | 0.00 | 76 | 1018.2 |
| 20260510011558 | 11 | 46 | 1.6 | 14.5 | 0.00 | 0.00 | 0.00 | 76 | 1018.1 |
| 20260510011056 | 11 | 62 | 3.2 | 17.7 | 0.00 | 0.00 | 0.00 | 76 | 1018.1 |
| 20260510010557 | 11 | 61 | 1.6 | 17.7 | 0.00 | 0.00 | 0.00 | 75 | 1018.1 |
| 20260510010058 | 11 | 29 | 3.2 | 19.3 | 0.00 | 0.00 | 0.00 | 75 | 1018.1 |
| 20260510005554 | 11 | 55 | 3.2 | 19.3 | 0.00 | 0.00 | 0.00 | 75 | 1018.1 |
| 20260510005058 | 11 | 68 | 3.2 | 11.3 | 0.00 | 0.00 | 0.00 | 74 | 1017.9 |
| 20260510004553 | 11 | 290 | 3.2 | 14.5 | 0.00 | 0.00 | 0.00 | 73 | 1018.0 |
| 20260510004053 | 11 | 59 | 4.8 | 14.5 | 0.00 | 0.00 | 0.00 | 73 | 1017.9 |
| 20260510003552 | 11 | 59 | 4.8 | 14.5 | 0.00 | 0.00 | 0.00 | 73 | 1017.9 |
| 20260510003051 | 11 | 79 | 4.8 | 14.5 | 0.00 | 0.00 | 0.00 | 72 | 1017.9 |
| 20260510002549 | 11 | 43 | 1.6 | 16.1 | 0.00 | 0.00 | 0.00 | 72 | 1018.0 |
| 20260510002049 | 11 | 49 | 3.2 | 16.1 | 0.00 | 0.00 | 0.00 | 71 | 1018.1 |
| 20260510001549 | 11 | 73 | 3.2 | 14.5 | 0.00 | 0.00 | 0.00 | 71 | 1018.3 |
| 20260510001048 | 11 | 69 | 3.2 | 12.9 | 0.00 | 0.00 | 0.00 | 71 | 1018.1 |
| 20260510000647 | 11 | 53 | 1.6 | 14.5 | 0.00 | 0.00 | 0.00 | 70 | 1018.1 |
| 20260510000046 | 11 | 61 | 3.2 | 17.7 | 0.00 | 0.00 | 0.00 | 70 | 1018.1 |
| 20260509235547 | 11 | 55 | 6.4 | 17.7 | 0.00 | 0.00 | 0.00 | 70 | 1018.1 |
| 20260509235046 | 11 | 63 | 1.6 | 14.5 | 0.00 | 0.00 | 0.00 | 70 | 1018.1 |
| 20260509234545 | 11 | 80 | 3.2 | 14.5 | 0.00 | 0.00 | 0.00 | 71 | 1018.0 |
| 20260509234044 | 12 | 29 | 0.0 | 9.7 | 0.00 | 0.00 | 0.00 | 71 | 1018.1 |
| 20260509233549 | 12 | 62 | 3.2 | 9.7 | 0.00 | 0.00 | 0.00 | 71 | 1017.9 |
| 20260509233043 | 12 | 40 | 0.0 | 9.7 | 0.00 | 0.00 | 0.00 | 71 | 1017.9 |
| 20260509232544 | 12 | 49 | 1.6 | 9.7 | 0.00 | 0.00 | 0.00 | 71 | 1018.0 |
| 20260509232042 | 12 | 74 | 3.2 | 9.7 | 0.00 | 0.00 | 0.00 | 71 | 1018.1 |
| 20260509231544 | 12 | 26 | 1.6 | 12.9 | 0.00 | 0.00 | 0.00 | 70 | 1018.2 |
| 20260509231040 | 12 | 26 | 3.2 | 9.7 | 0.00 | 0.00 | 0.00 | 70 | 1018.1 |
| 20260509230539 | 12 | 39 | 3.2 | 11.3 | 0.00 | 0.00 | 0.00 | 70 | 1018.2 |
| 20260509230038 | 12 | 51 | 1.6 | 11.3 | 0.00 | 0.00 | 0.00 | 69 | 1018.2 |
| 20260509225538 | 12 | 67 | 0.0 | 4.8 | 0.00 | 0.00 | 0.00 | 68 | 1018.1 |
| 20260509225040 | 12 | 76 | 0.0 | 4.8 | 0.00 | 0.00 | 0.00 | 68 | 1018.0 |
| 20260509224538 | 12 | 62 | 1.6 | 11.3 | 0.00 | 0.00 | 0.00 | 67 | 1018.1 |
| 20260509224041 | 12 | 82 | 3.2 | 11.3 | 0.00 | 0.00 | 0.00 | 67 | 1018.1 |
| 20260509223539 | 12 | 74 | 1.6 | 11.3 | 0.00 | 0.00 | 0.00 | 66 | 1018.0 |
| 20260509223038 | 12 | 73 | 1.6 | 11.3 | 0.00 | 0.00 | 0.00 | 65 | 1018.1 |
| 20260509222539 | 12 | 46 | 3.2 | 8.0 | 0.00 | 0.00 | 0.00 | 65 | 1018.0 |
| 20260509222037 | 12 | 43 | 1.6 | 6.4 | 0.00 | 0.00 | 0.00 | 64 | 1018.1 |
| 20260509221537 | 12 | 69 | 0.0 | 16.1 | 0.00 | 0.00 | 0.00 | 64 | 1018.0 |
| 20260509221037 | 12 | 34 | 4.8 | 16.1 | 0.00 | 0.00 | 0.00 | 63 | 1018.0 |
| 20260509220537 | 12 | 5 | 1.6 | 11.3 | 0.00 | 0.00 | 0.00 | 63 | 1018.0 |
| 20260509220038 | 12 | 60 | 0.0 | 6.4 | 0.00 | 0.00 | 0.00 | 62 | 1018.0 |
| 20260509215536 | 12 | 44 | 0.0 | 6.4 | 0.00 | 0.00 | 0.00 | 62 | 1018.1 |
| 20260509215036 | 12 | 92 | 0.0 | 8.0 | 0.00 | 0.00 | 0.00 | 62 | 1018.1 |
| 20260509214536 | 12 | 41 | 0.0 | 8.0 | 0.00 | 0.00 | 0.00 | 61 | 1018.1 |
| 20260509214036 | 13 | 64 | 0.0 | 6.4 | 0.00 | 0.00 | 0.00 | 61 | 1018.2 |
| 20260509213536 | 13 | 99 | 0.0 | 6.4 | 0.00 | 0.00 | 0.00 | 60 | 1018.1 |
| 20260509213036 | 13 | 9 | 0.0 | 6.4 | 0.00 | 0.00 | 0.00 | 60 | 1018.1 |
| 20260509212535 | 13 | 5 | 0.0 | 6.4 | 0.00 | 0.00 | 0.00 | 60 | 1018.1 |
| 20260509212035 | 13 | 53 | 0.0 | 9.7 | 0.00 | 0.00 | 0.00 | 59 | 1017.8 |
| 20260509211535 | 13 | 97 | 1.6 | 9.7 | 0.00 | 0.00 | 0.00 | 59 | 1017.9 |
| 20260509211037 | 13 | 84 | 0.0 | 8.0 | 0.00 | 0.00 | 0.00 | 58 | 1017.8 |
| 20260509210536 | 13 | 324 | 0.0 | 6.4 | 0.00 | 0.00 | 0.00 | 58 | 1017.8 |
| 20260509210040 | 13 | 38 | 0.0 | 6.4 | 0.00 | 0.00 | 0.00 | 57 | 1017.6 |
| 20260509205534 | 13 | 71 | 0.0 | 12.9 | 0.00 | 0.00 | 0.00 | 56 | 1017.6 |
| 20260509205034 | 13 | 65 | 1.6 | 12.9 | 0.00 | 0.00 | 0.00 | 56 | 1017.7 |
| 20260509204540 | 13 | 71 | 1.6 | 16.1 | 0.00 | 0.00 | 0.00 | 56 | 1017.7 |
| 20260509204034 | 13 | 48 | 1.6 | 16.1 | 0.00 | 0.00 | 0.00 | 55 | 1017.7 |
| 20260509203535 | 13 | 81 | 1.6 | 8.0 | 0.00 | 0.00 | 0.00 | 54 | 1017.6 |
| 20260509203040 | 14 | 80 | 0.0 | 8.0 | 0.00 | 0.00 | 0.00 | 54 | 1017.7 |
| 20260509202535 | 14 | 42 | 0.0 | 8.0 | 0.00 | 0.00 | 0.00 | 53 | 1017.6 |
| 20260509202035 | 14 | 33 | 3.2 | 8.0 | 0.00 | 0.00 | 0.00 | 53 | 1017.5 |
| 20260509201533 | 14 | 51 | 1.6 | 11.3 | 0.00 | 0.00 | 0.00 | 52 | 1017.5 |
| 20260509201033 | 14 | 74 | 1.6 | 11.3 | 0.00 | 0.00 | 0.00 | 52 | 1017.5 |
| 20260509200533 | 14 | 161 | 0.0 | 6.4 | 0.00 | 0.00 | 0.00 | 51 | 1017.6 |
| 20260509200033 | 15 | 30 | 0.0 | 3.2 | 0.00 | 0.00 | 0.00 | 50 | 1017.5 |
| 20260509195532 | 15 | 314 | 0.0 | 12.9 | 0.00 | 0.00 | 0.00 | 50 | 1017.4 |
| 20260509195033 | 15 | 53 | 1.6 | 12.9 | 0.00 | 0.00 | 0.00 | 49 | 1017.4 |
| 20260509194532 | 15 | 63 | 1.6 | 9.7 | 0.00 | 0.00 | 0.00 | 49 | 1017.4 |
| 20260509194032 | 15 | 92 | 0.0 | 9.7 | 0.00 | 0.00 | 0.00 | 48 | 1017.4 |
| 20260509193533 | 15 | 291 | 1.6 | 9.7 | 0.00 | 0.00 | 0.00 | 48 | 1017.3 |
| 20260509193037 | 15 | 51 | 3.2 | 16.1 | 0.00 | 0.00 | 0.00 | 47 | 1017.1 |
| 20260509192535 | 15 | 55 | 1.6 | 12.9 | 0.00 | 0.00 | 0.00 | 47 | 1017.0 |
| 20260509192032 | 15 | 327 | 1.6 | 11.3 | 0.00 | 0.00 | 0.00 | 47 | 1016.9 |
| 20260509191538 | 15 | 117 | 1.6 | 16.1 | 0.00 | 0.00 | 0.00 | 47 | 1016.9 |
| 20260509191032 | 15 | 28 | 3.2 | 16.1 | 0.00 | 0.00 | 0.00 | 46 | 1017.0 |
| 20260509190530 | 15 | 54 | 3.2 | 9.7 | 0.00 | 0.00 | 0.00 | 47 | 1017.1 |
| 20260509190031 | 16 | 26 | 1.6 | 11.3 | 0.00 | 0.00 | 0.00 | 47 | 1017.0 |
| 20260509185530 | 16 | 208 | 1.6 | 14.5 | 0.00 | 0.00 | 0.00 | 48 | 1017.0 |
| 20260509185030 | 16 | 53 | 4.8 | 14.5 | 0.00 | 0.00 | 0.00 | 47 | 1017.1 |
| 20260509184533 | 16 | 55 | 1.6 | 17.7 | 0.00 | 0.00 | 0.00 | 48 | 1017.0 |
| 20260509184029 | 16 | 141 | 3.2 | 16.1 | 0.00 | 0.00 | 0.00 | 47 | 1017.0 |
| 20260509183529 | 16 | 68 | 4.8 | 19.3 | 0.00 | 0.00 | 0.00 | 47 | 1016.9 |
| 20260509183031 | 16 | 69 | 3.2 | 19.3 | 0.00 | 0.00 | 0.00 | 47 | 1016.9 |
| 20260509182532 | 16 | 67 | 3.2 | 12.9 | 0.00 | 0.00 | 0.00 | 47 | 1017.0 |
| 20260509182028 | 16 | 96 | 1.6 | 14.5 | 0.00 | 0.00 | 0.00 | 47 | 1016.9 |
| 20260509181528 | 17 | 37 | 1.6 | 14.5 | 0.00 | 0.00 | 0.00 | 47 | 1017.0 |
| 20260509181028 | 17 | 60 | 1.6 | 14.5 | 0.00 | 0.00 | 0.00 | 47 | 1017.0 |
| 20260509180528 | 17 | 42 | 3.2 | 14.5 | 0.00 | 0.00 | 0.00 | 47 | 1017.0 |
| 20260509180028 | 17 | 92 | 1.6 | 12.9 | 0.00 | 0.00 | 0.00 | 46 | 1016.9 |
| 20260509175530 | 17 | 167 | 3.2 | 12.9 | 0.00 | 0.00 | 0.00 | 46 | 1016.8 |
| 20260509175027 | 17 | 276 | 1.6 | 14.5 | 0.00 | 0.00 | 0.00 | 45 | 1016.6 |
| 20260509174527 | 17 | 126 | 3.2 | 14.5 | 0.00 | 0.00 | 0.00 | 45 | 1016.6 |
| 20260509174026 | 17 | 186 | 0.0 | 20.9 | 0.00 | 0.00 | 0.00 | 45 | 1016.6 |
| 20260509173525 | 18 | 168 | 4.8 | 20.9 | 0.00 | 0.00 | 0.00 | 44 | 1016.6 |
| 20260509173026 | 18 | 160 | 3.2 | 16.1 | 0.00 | 0.00 | 0.00 | 44 | 1016.7 |
| 20260509172525 | 18 | 73 | 3.2 | 19.3 | 0.00 | 0.00 | 0.00 | 45 | 1016.7 |
| 20260509172026 | 18 | 348 | 0.0 | 19.3 | 0.00 | 0.00 | 0.00 | 45 | 1016.7 |
| 20260509171525 | 19 | 15 | 1.6 | 11.3 | 0.00 | 0.00 | 0.00 | 44 | 1016.8 |
| 20260509171026 | 19 | 124 | 4.8 | 17.7 | 0.00 | 0.00 | 0.00 | 43 | 1016.8 |
| 20260509170523 | 20 | 324 | 4.8 | 17.7 | 0.00 | 0.00 | 0.00 | 41 | 1016.8 |
| 20260509170022 | 20 | 130 | 4.8 | 12.9 | 0.00 | 0.00 | 0.00 | 40 | 1016.9 |
| 20260509165522 | 20 | 43 | 1.6 | 12.9 | 0.00 | 0.00 | 0.00 | 41 | 1016.9 |
| 20260509165022 | 20 | 206 | 1.6 | 14.5 | 0.00 | 0.00 | 0.00 | 40 | 1016.9 |
| 20260509164532 | 21 | 94 | 3.2 | 16.1 | 0.00 | 0.00 | 0.00 | 40 | 1017.0 |
| 20260509164023 | 21 | 169 | 4.8 | 16.1 | 0.00 | 0.00 | 0.00 | 39 | 1016.8 |
| 20260509163518 | 21 | 38 | 3.2 | 12.9 | 0.00 | 0.00 | 0.00 | 38 | 1016.7 |
| 20260509163018 | 21 | 34 | 3.2 | 12.9 | 0.00 | 0.00 | 0.00 | 39 | 1016.6 |
| 20260509162517 | 21 | 69 | 3.2 | 14.5 | 0.00 | 0.00 | 0.00 | 39 | 1016.5 |
| 20260509162022 | 22 | 106 | 3.2 | 12.9 | 0.00 | 0.00 | 0.00 | 39 | 1016.6 |
| 20260509161516 | 22 | 40 | 1.6 | 19.3 | 0.00 | 0.00 | 0.00 | 39 | 1016.6 |
| 20260509161017 | 22 | 65 | 4.8 | 19.3 | 0.00 | 0.00 | 0.00 | 40 | 1016.7 |
| 20260509160516 | 22 | 69 | 1.6 | 16.1 | 0.00 | 0.00 | 0.00 | 39 | 1016.8 |
| 20260509160017 | 22 | 71 | 4.8 | 16.1 | 0.00 | 0.00 | 0.00 | 39 | 1016.9 |
| 20260509155515 | 22 | 81 | 3.2 | 12.9 | 0.00 | 0.00 | 0.00 | 41 | 1016.9 |
| 20260509155018 | 22 | 92 | 3.2 | 12.9 | 0.00 | 0.00 | 0.00 | 39 | 1016.8 |
| 20260509154515 | 22 | 93 | 1.6 | 9.7 | 0.00 | 0.00 | 0.00 | 40 | 1016.9 |
| 20260509154016 | 22 | 92 | 1.6 | 14.5 | 0.00 | 0.00 | 0.00 | 40 | 1017.0 |
| 20260509153519 | 22 | 90 | 4.8 | 14.5 | 0.00 | 0.00 | 0.00 | 39 | 1017.0 |
| 20260509153014 | 22 | 323 | 3.2 | 9.7 | 0.00 | 0.00 | 0.00 | 39 | 1017.0 |
| 20260509152514 | 23 | 161 | 1.6 | 14.5 | 0.00 | 0.00 | 0.00 | 40 | 1017.0 |
| 20260509152014 | 22 | 181 | 3.2 | 14.5 | 0.00 | 0.00 | 0.00 | 40 | 1016.9 |
| 20260509151614 | 22 | 75 | 4.8 | 14.5 | 0.00 | 0.00 | 0.00 | 39 | 1017.0 |
| 20260509151013 | 22 | 46 | 4.8 | 19.3 | 0.00 | 0.00 | 0.00 | 39 | 1017.0 |
| 20260509150513 | 22 | 101 | 3.2 | 17.7 | 0.00 | 0.00 | 0.00 | 39 | 1017.0 |
| 20260509150012 | 22 | 49 | 9.7 | 19.3 | 0.00 | 0.00 | 0.00 | 38 | 1017.0 |
| 20260509145512 | 22 | 43 | 4.8 | 19.3 | 0.00 | 0.00 | 0.00 | 39 | 1017.0 |
| 20260509145012 | 22 | 252 | 1.6 | 14.5 | 0.00 | 0.00 | 0.00 | 40 | 1017.0 |
| 20260509144511 | 22 | 79 | 4.8 | 14.5 | 0.00 | 0.00 | 0.00 | 39 | 1017.0 |
| 20260509144111 | 23 | 213 | 3.2 | 17.7 | 0.00 | 0.00 | 0.00 | 38 | 1016.9 |
| 20260509143509 | 23 | 17 | 3.2 | 19.3 | 0.00 | 0.00 | 0.00 | 39 | 1016.8 |
| 20260509143009 | 23 | 46 | 3.2 | 19.3 | 0.00 | 0.00 | 0.00 | 39 | 1016.7 |
| 20260509142508 | 23 | 67 | 1.6 | 14.5 | 0.00 | 0.00 | 0.00 | 39 | 1016.6 |
| 20260509142009 | 23 | 159 | 3.2 | 19.3 | 0.00 | 0.00 | 0.00 | 38 | 1016.6 |
| 20260509141509 | 23 | 49 | 3.2 | 19.3 | 0.00 | 0.00 | 0.00 | 39 | 1016.6 |
| 20260509141012 | 23 | 156 | 3.2 | 14.5 | 0.00 | 0.00 | 0.00 | 39 | 1016.6 |